Temp
-11 -11 -11 -11 -11 -10 -10 -10 -10 -10 -10 -10 -10 -10 -10 -10 -10 -11 -11 -12 -11 -11 -12 -12 -12 -12 -12 -12 -12 -13 -12 -12 -12 -12 -12 -12 -12 -12 -12 -12 -12 -13 -13
-11 -11 -11 -11 -11 -11 -11 -11 -11 -11 -10 -10 -11 -10 -11 -10 -10 -11 -11 -11 -12 -11 -12 -12 -12 -12 -12 -12 -12 -12 -12 -12 -12 -12 -12 -12 -12 -12 -12 -12 -12 -12 -13
-12 -11 -11 -11 -11 -11 -11 -11 -11 -11 -11 -11 -11 -11 -10 -11 -11 -11 -11 -11 -11 -12 -11 -11 -11 -11 -12 -12 -12 -12 -12 -13 -12 -12 -13 -12 -12 -12 -12 -13 -12 -13 -13
-12 -11 -11 -11 -11 -11 -11 -11 -11 -11 -11 -11 -11 -11 -11 -11 -11 -11 -12 -11 -11 -11 -12 -11 -11 -12 -12 -12 -12 -12 -12 -12 -12 -12 -13 -13 -12 -12 -12 -13 -13 -13 -13
-12 -12 -12 -12 -11 -11 -11 -11 -11 -11 -12 -11 -11 -11 -11 -11 -11 -11 -11 -12 -12 -12 -12 -12 -12 -12 -12 -13 -13 -12 -12 -12 -12 -13 -13 -13 -13 -13 -13 -13 -13 -13 -13
-12 -12 -12 -12 -12 -11 -11 -11 -11 -11 -12 -12 -11 -11 -11 -11 -11 -12 -11 -12 -12 -12 -12 -12 -12 -12 -12 -12 -13 -13 -13 -13 -13 -12 -13 -13 -13 -13 -13 -13 -13 -13 -13
-12 -12 -12 -12 -12 -12 -11 -11 -11 -12 -12 -12 -12 -12 -12 -12 -11 -11 -12 -12 -12 -12 -12 -12 -12 -12 -12 -12 -13 -13 -13 -13 -12 -13 -13 -13 -13 -13 -14 -13 -13 -13 -13
-13 -12 -12 -12 -12 -12 -12 -11 -12 -12 -12 -12 -12 -12 -12 -12 -12 -12 -12 -11 -11 -11 -12 -12 -12 -12 -12 -12 -13 -13 -13 -13 -13 -13 -13 -13 -13 -13 -14 -14 -13 -13 -14
-13 -13 -12 -12 -12 -12 -12 -12 -12 -12 -12 -12 -12 -12 -12 -12 -12 -12 -12 -12 -12 -12 -12 -12 -12 -12 -12 -12 -13 -13 -13 -13 -13 -13 -13 -12 -12 -13 -14 -14 -14 -14 -14
-13 -13 -13 -12 -12 -12 -12 -12 -12 -12 -12 -12 -12 -12 -12 -12 -12 -12 -13 -13 -12 -12 -12 -12 -12 -12 -12 -12 -13 -13 -13 -13 -13 -13 -13 -13 -12 -12 -13 -15 -14 -14 -15
-14 -13 -13 -13 -13 -12 -13 -13 -12 -12 -12 -12 -12 -12 -12 -12 -12 -12 -12 -13 -13 -13 -12 -12 -12 -12 -12 -12 -13 -13 -13 -13 -14 -13 -13 -13 -13 -13 -13 -14 -15 -15 -14
-14 -14 -13 -13 -13 -13 -13 -13 -13 -12 -12 -12 -12 -12 -12 -12 -12 -12 -12 -12 -12 -13 -13 -13 -12 -12 -12 -12 -13 -13 -13 -13 -13 -13 -13 -13 -13 -13 -13 -13 -14 -15 -15
-13 -14 -14 -14 -13 -13 -13 -13 -13 -13 -13 -13 -12 -12 -12 -12 -12 -12 -12 -12 -12 -12 -13 -13 -13 -13 -12 -12 -12 -13 -13 -13 -13 -13 -14 -14 -13 -14 -13 -13 -13 -15 -15
-13 -14 -15 -14 -14 -14 -13 -14 -13 -13 -13 -13 -13 -13 -12 -12 -12 -12 -12 -12 -12 -12 -12 -12 -13 -13 -14 -13 -13 -13 -13 -13 -13 -13 -13 -14 -14 -14 -13 -13 -13 -14 -15
-13 -15 -15 -14 -14 -14 -14 -14 -14 -14 -13 -13 -13 -13 -13 -13 -13 -13 -13 -12 -12 -12 -12 -13 -13 -13 -14 -14 -13 -13 -13 -13 -13 -13 -13 -13 -13 -14 -13 -13 -13 -13 -14
-13 -13 -14 -15 -15 -15 -14 -14 -14 -14 -14 -13 -13 -14 -13 -13 -12 -12 -13 -13 -13 -13 -13 -13 -13 -13 -13 -14 -13 -13 -12 -13 -13 -13 -13 -13 -13 -14 -13 -13 -13 -13 -13
-14 -13 -14 -14 -14 -14 -14 -14 -14 -14 -14 -14 -14 -14 -14 -14 -13 -13 -12 -13 -13 -13 -13 -14 -13 -13 -13 -13 -14 -14 -13 -12 -12 -13 -13 -13 -13 -13 -13 -14 -13 -13 -13
-13 -12 -14 -14 -14 -15 -14 -14 -15 -15 -14 -14 -14 -14 -14 -14 -14 -14 -13 -13 -13 -13 -13 -13 -14 -13 -13 -13 -13 -13 -13 -13 -12 -12 -13 -12 -13 -13 -13 -13 -14 -13 -13
-15 -13 -14 -14 -14 -15 -14 -15 -15 -15 -15 -15 -14 -14 -14 -14 -14 -13 -13 -13 -13 -13 -13 -13 -13 -14 -13 -13 -13 -13 -13 -13 -12 -12 -12 -13 -13 -13 -13 -13 -13 -13 -14
-14 -14 -15 -15 -15 -15 -15 -16 -15 -16 -15 -15 -14 -14 -14 -14 -14 -14 -13 -13 -14 -13 -13 -13 -13 -13 -13 -13 -13 -14 -13 -13 -12 -12 -12 -12 -13 -13 -13 -14 -14 -14 -14
-16 -16 -16 -16 -15 -16 -16 -16 -16 -16 -15 -15 -15 -14 -14 -14 -14 -14 -13 -13 -13 -13 -13 -13 -13 -13 -13 -13 -14 -14 -13 -13 -13 -13 -13 -12 -13 -13 -13 -14 -14 -14 -14
-16 -16 -16 -16 -16 -16 -16 -16 -16 -15 -15 -15 -15 -15 -14 -14 -14 -14 -14 -14 -13 -13 -13 -14 -13 -13 -13 -14 -13 -14 -13 -13 -13 -13 -13 -13 -13 -13 -13 -13 -14 -14 -14
-18 -17 -17 -16 -16 -17 -16 -16 -16 -16 -16 -16 -16 -15 -15 -15 -14 -14 -14 -14 -14 -14 -13 -13 -13 -13 -13 -13 -14 -14 -14 -13 -13 -14 -13 -13 -13 -13 -13 -13 -14 -14 -14
-18 -18 -17 -17 -17 -17 -16 -17 -16 -16 -17 -17 -16 -16 -16 -16 -15 -15 -15 -15 -15 -14 -14 -13 -14 -14 -13 -14 -14 -14 -14 -14 -14 -14 -14 -14 -14 -14 -14 -14 -14 -14 -14
-18 -18 -18 -18 -18 -17 -17 -17 -17 -17 -16 -16 -16 -16 -16 -16 -16 -15 -15 -15 -15 -15 -14 -14 -14 -14 -14 -14 -14 -14 -14 -14 -14 -14 -16 -15 -14 -14 -14 -14 -14 -15 -14
-18 -18 -18 -18 -18 -18 -18 -18 -17 -17 -17 -17 -17 -17 -16 -16 -16 -16 -16 -16 -15 -15 -15 -15 -15 -15 -15 -15 -15 -15 -15 -15 -15 -15 -16 -16 -15 -15 -15 -14 -15 -15 -15
Height
5796 5799 5799 5802 5802 5803 5804 5804 5804 5805 5806 5806 5806 5807 5805 5803 5803 5802 5800 5800 5799 5798 5799 5797 5798 5800 5800 5801 5803 5805 5807 5810 5812 5814 5817 5819 5820 5821 5823 5824 5824 5824 5825
5791 5793 5795 5796 5798 5799 5799 5801 5800 5801 5802 5803 5803 5803 5803 5801 5800 5799 5798 5797 5797 5795 5795 5796 5797 5798 5799 5799 5801 5800 5801 5805 5808 5811 5813 5815 5815 5817 5819 5820 5821 5822 5822
5785 5788 5789 5791 5792 5794 5795 5795 5796 5797 5797 5798 5799 5799 5799 5799 5797 5797 5795 5795 5794 5793 5792 5792 5794 5793 5795 5796 5796 5796 5797 5798 5803 5807 5809 5811 5812 5813 5815 5816 5817 5818 5819
5778 5780 5783 5785 5787 5789 5789 5790 5792 5793 5793 5793 5795 5795 5795 5795 5794 5793 5792 5791 5791 5790 5790 5790 5789 5789 5790 5791 5791 5792 5792 5795 5797 5801 5803 5806 5807 5808 5811 5811 5813 5814 5815
5770 5772 5776 5779 5782 5783 5785 5785 5787 5788 5789 5789 5789 5790 5790 5791 5791 5790 5789 5788 5788 5787 5785 5786 5787 5786 5786 5787 5788 5788 5788 5791 5791 5793 5797 5799 5801 5803 5805 5806 5808 5810 5811
5762 5766 5769 5772 5776 5777 5779 5780 5781 5783 5784 5784 5785 5785 5785 5786 5787 5786 5785 5784 5784 5783 5783 5781 5782 5783 5783 5782 5783 5783 5785 5785 5786 5786 5788 5792 5794 5797 5799 5802 5803 5804 5807
5754 5759 5762 5765 5767 5769 5770 5772 5775 5777 5778 5779 5780 5780 5780 5780 5780 5781 5781 5779 5779 5779 5778 5779 5778 5778 5778 5779 5779 5778 5779 5780 5779 5780 5781 5782 5786 5789 5792 5795 5797 5799 5800
5745 5749 5752 5757 5760 5763 5765 5766 5767 5770 5772 5773 5774 5775 5776 5776 5774 5776 5776 5775 5774 5774 5774 5773 5773 5772 5773 5773 5773 5774 5773 5773 5773 5773 5774 5775 5776 5779 5783 5787 5789 5791 5794
5733 5739 5744 5749 5752 5755 5759 5759 5761 5763 5765 5767 5768 5769 5770 5770 5770 5770 5770 5769 5769 5768 5768 5768 5768 5767 5767 5767 5767 5767 5767 5766 5766 5765 5765 5766 5766 5769 5774 5778 5781 5785 5786
5723 5729 5735 5738 5742 5747 5750 5753 5753 5756 5757 5760 5761 5763 5762 5763 5764 5766 5766 5764 5763 5763 5762 5762 5762 5762 5761 5761 5760 5760 5759 5759 5758 5758 5758 5758 5759 5760 5762 5768 5773 5776 5776
5714 5717 5725 5728 5732 5737 5741 5745 5745 5748 5750 5752 5753 5754 5756 5755 5757 5757 5758 5760 5759 5756 5756 5757 5756 5756 5755 5754 5754 5753 5751 5749 5749 5750 5750 5751 5753 5754 5756 5758 5763 5766 5768
5703 5707 5712 5718 5723 5726 5729 5735 5737 5738 5740 5743 5745 5746 5748 5748 5749 5749 5750 5749 5750 5751 5751 5750 5748 5748 5748 5747 5747 5746 5744 5742 5743 5744 5743 5744 5746 5748 5750 5750 5753 5756 5760
5689 5696 5698 5705 5711 5716 5720 5724 5728 5729 5731 5733 5735 5738 5738 5740 5741 5740 5742 5743 5741 5741 5742 5742 5741 5742 5740 5739 5739 5739 5738 5737 5736 5737 5738 5738 5739 5741 5742 5742 5744 5747 5749
5673 5681 5682 5693 5701 5706 5712 5714 5719 5719 5724 5725 5727 5729 5731 5732 5733 5733 5733 5734 5734 5733 5733 5735 5733 5730 5731 5731 5732 5731 5731 5731 5730 5729 5730 5731 5732 5733 5733 5734 5736 5737 5739
5659 5664 5669 5680 5688 5695 5700 5703 5709 5711 5713 5717 5717 5719 5722 5724 5722 5721 5720 5722 5724 5725 5726 5726 5725 5725 5722 5722 5722 5722 5722 5723 5722 5722 5721 5722 5723 5724 5725 5726 5727 5728 5728
5647 5634 5652 5666 5674 5683 5689 5693 5698 5700 5702 5707 5709 5710 5709 5711 5710 5709 5713 5711 5713 5715 5716 5718 5716 5716 5716 5716 5713 5712 5714 5714 5714 5714 5713 5714 5714 5715 5717 5718 5719 5720 5720
5636 5640 5648 5657 5665 5670 5678 5683 5689 5689 5691 5696 5698 5701 5700 5699 5700 5699 5703 5703 5702 5702 5704 5709 5707 5707 5708 5708 5706 5703 5703 5703 5704 5704 5704 5705 5706 5708 5709 5710 5711 5712 5713
5631 5633 5641 5649 5654 5662 5668 5674 5678 5679 5680 5685 5688 5687 5689 5687 5687 5688 5691 5693 5693 5693 5693 5695 5697 5697 5697 5698 5696 5696 5693 5693 5695 5694 5693 5695 5697 5698 5699 5701 5702 5703 5704
5626 5630 5637 5639 5645 5652 5660 5663 5666 5666 5669 5673 5675 5677 5677 5674 5675 5677 5679 5682 5684 5683 5683 5682 5685 5686 5687 5688 5685 5686 5684 5682 5683 5685 5684 5685 5686 5688 5689 5690 5692 5693 5694
5620 5625 5629 5633 5639 5644 5649 5652 5653 5654 5658 5661 5662 5664 5665 5664 5667 5668 5669 5671 5674 5675 5674 5672 5672 5673 5675 5674 5674 5675 5672 5671 5672 5673 5674 5675 5675 5676 5678 5679 5680 5682 5684
5611 5613 5622 5627 5632 5634 5637 5638 5640 5642 5646 5649 5650 5651 5652 5651 5653 5656 5658 5660 5661 5661 5661 5660 5661 5660 5661 5661 5661 5661 5661 5661 5662 5662 5663 5663 5664 5665 5666 5667 5668 5670 5672
5600 5605 5610 5616 5620 5622 5624 5627 5631 5631 5632 5635 5636 5636 5637 5639 5639 5641 5642 5643 5645 5647 5648 5648 5647 5648 5649 5649 5649 5648 5648 5648 5649 5651 5651 5650 5651 5652 5653 5654 5656 5658 5660
5596 5603 5606 5609 5611 5614 5614 5616 5617 5617 5619 5620 5620 5620 5620 5622 5624 5626 5626 5627 5628 5630 5632 5634 5634 5634 5634 5634 5635 5634 5635 5635 5635 5636 5636 5637 5638 5640 5641 5641 5643 5646 5648
5589 5594 5598 5599 5600 5601 5600 5601 5601 5603 5604 5604 5603 5604 5605 5606 5608 5609 5610 5611 5611 5612 5615 5617 5617 5617 5617 5618 5619 5619 5620 5621 5621 5622 5624 5624 5626 5627 5628 5629 5631 5633 5635
5583 5584 5586 5585 5584 5585 5585 5586 5587 5586 5586 5586 5587 5588 5588 5589 5590 5591 5591 5593 5595 5594 5597 5599 5601 5601 5602 5602 5603 5605 5603 5605 5607 5607 5608 5611 5612 5613 5615 5616 5618 5620 5622
5577 5577 5576 5576 5576 5576 5575 5573 5571 5571 5571 5571 5572 5571 5571 5571 5571 5572 5572 5573 5574 5576 5578 5581 5583 5585 5584 5585 5585 5587 5589 5589 5591 5592 5594 5594 5598 5599 5600 5602 5604 5607 5608
Wind_Speed
25 24 22 19 19 20 19 17 16 15 14 15 14 15 13 11 11 12 13 14 11 15 13 13 13 15 17 23 26 25 25 26 26 28 28 26 21 19 17 14 12 11 12
25 25 22 21 21 21 20 20 19 16 16 17 16 17 18 16 13 14 13 15 13 13 16 13 12 14 12 11 17 29 26 28 28 29 30 29 24 23 20 17 15 14 13
25 26 25 24 22 23 21 20 21 19 17 18 17 18 19 19 19 16 15 14 16 13 14 16 14 18 15 17 17 19 29 28 29 31 32 31 28 26 23 20 18 16 14
28 28 28 26 25 24 24 23 22 22 20 19 18 18 18 19 20 21 17 17 16 16 13 14 18 19 18 19 16 15 14 25 28 32 33 34 32 29 28 24 20 19 18
32 31 29 29 27 25 26 27 26 24 22 21 20 19 19 19 20 21 21 19 17 15 18 15 14 18 19 20 17 16 18 18 23 34 35 36 34 32 32 28 25 23 20
36 32 30 31 28 27 28 29 29 26 25 24 23 21 21 21 19 21 22 21 20 19 16 19 18 17 20 21 19 20 22 24 24 26 38 38 37 35 33 32 29 26 24
39 34 32 33 32 32 31 31 30 28 28 27 24 24 23 24 22 21 22 23 22 21 21 19 19 19 20 20 21 21 22 23 27 29 28 34 40 38 36 35 33 29 28
42 38 35 34 36 33 33 32 31 30 29 29 26 25 26 25 27 23 24 24 25 24 22 24 22 21 21 22 23 23 25 26 27 29 33 34 38 43 40 39 37 33 31
46 43 37 34 38 37 34 34 32 31 31 31 29 27 27 29 28 25 26 26 25 27 26 25 25 24 23 24 25 25 27 29 30 31 32 31 37 44 44 44 39 37 35
50 46 40 37 39 40 38 36 34 33 33 30 31 29 30 31 30 27 25 28 30 27 29 28 27 27 27 27 26 28 30 28 34 32 31 34 26 39 47 44 42 42 39
52 49 43 41 41 42 42 39 37 35 34 33 32 33 33 33 32 32 30 28 29 31 31 30 29 29 28 28 28 27 33 34 31 31 31 30 31 26 30 43 45 43 44
54 53 48 45 44 45 45 44 40 38 36 36 36 36 36 36 34 33 34 33 32 30 29 31 33 33 32 31 29 28 29 23 27 33 31 31 31 31 30 30 45 46 48
55 57 55 51 48 47 48 46 44 42 41 39 40 40 39 37 37 37 35 34 36 35 32 30 32 33 33 32 31 30 30 29 27 28 32 30 35 36 35 32 35 43 47
61 65 61 55 51 47 48 47 49 44 45 44 44 44 44 43 39 38 38 38 36 37 37 31 30 35 34 34 33 33 31 31 30 30 31 35 33 36 37 35 34 37 47
65 68 64 60 55 50 48 51 49 46 45 46 45 46 47 48 46 42 42 44 45 42 39 35 33 32 34 35 37 37 35 34 34 32 32 34 36 36 37 35 35 35 43
54 70 72 64 54 53 51 52 44 40 41 46 45 41 43 43 39 39 43 45 44 42 43 40 38 35 34 34 37 38 38 38 35 31 32 31 34 36 37 36 34 33 33
69 48 65 62 50 56 54 51 46 37 35 40 41 39 42 42 45 36 43 44 47 44 46 38 41 39 37 37 39 41 40 40 39 37 35 34 33 34 36 34 34 34 34
65 68 58 58 60 51 51 56 44 38 39 41 41 41 42 42 42 42 43 44 42 42 45 49 40 41 42 39 39 37 44 43 41 39 38 35 38 41 38 39 40 37 37
75 67 55 60 56 52 51 38 35 35 34 39 42 45 42 42 45 42 45 44 45 40 42 46 45 42 43 40 45 42 44 43 43 40 40 36 36 38 37 40 41 41 41
59 37 34 34 37 38 39 36 39 37 39 43 47 50 50 44 41 42 42 46 48 49 46 44 42 43 44 47 45 44 43 44 45 43 41 40 38 39 41 42 42 44 45
30 29 32 32 34 39 38 41 44 46 49 49 51 53 57 53 51 49 48 48 48 47 46 48 49 51 51 47 41 42 44 45 46 45 44 41 41 39 41 40 42 45 47
35 31 39 37 38 43 46 47 50 52 52 53 53 56 58 59 54 56 55 52 53 51 43 54 57 54 56 51 50 47 51 51 46 47 47 45 45 43 40 40 38 43 43
20 26 31 35 39 44 47 48 50 52 52 54 55 56 58 59 60 61 59 57 52 52 54 56 58 55 55 54 54 52 50 49 48 51 50 49 48 46 45 41 39 42 46
23 27 32 38 42 46 49 51 54 56 55 55 56 58 58 60 59 61 59 59 57 55 55 57 57 54 53 54 55 55 57 54 51 51 53 51 47 46 46 45 46 45 45
25 28 30 31 33 39 45 49 52 56 58 60 62 63 64 64 63 63 63 61 61 63 62 63 63 60 62 57 54 54 52 53 51 50 51 48 48 47 47 47 48 48 46
23 25 27 28 29 30 33 38 44 49 51 54 57 59 60 61 64 63 64 63 65 64 62 63 62 57 54 48 47 48 49 50 53 52 51 51 50 50 49 47 46 46 46
Wind_Direction
262 260 249 247 249 253 254 253 257 260 258 258 264 267 271 276 285 289 292 291 289 296 309 311 309 319 315 247 236 234 238 238 238 237 234 238 238 245 251 262 271 276 264
262 261 254 248 248 251 251 254 255 256 257 257 259 266 272 273 276 284 286 291 290 287 296 298 286 275 290 312 283 256 233 239 240 240 236 237 238 241 248 255 267 275 263
255 259 253 250 248 249 252 253 258 255 252 258 263 264 267 275 278 281 289 292 291 282 280 295 287 287 277 276 295 294 253 229 242 244 240 239 239 241 245 250 259 268 270
248 249 253 252 251 251 252 252 253 258 254 256 259 265 269 272 279 283 285 287 292 291 277 274 290 293 289 287 281 286 300 264 243 243 241 239 241 241 244 246 252 258 265
248 244 248 253 253 253 253 253 253 254 255 252 255 260 267 270 275 279 282 287 286 291 290 283 282 286 286 282 282 283 275 275 271 240 241 241 242 242 243 244 247 252 260
248 244 246 250 250 251 254 252 254 256 259 256 254 255 259 265 267 272 276 281 288 288 290 288 284 280 281 281 279 279 268 267 266 264 241 240 242 242 243 244 246 247 253
243 244 244 247 246 245 246 249 254 257 259 262 260 257 260 262 266 273 276 277 279 284 291 290 290 283 286 280 280 278 266 266 266 260 261 251 242 241 239 242 245 244 249
244 240 240 242 249 244 247 250 251 254 259 261 260 260 259 261 262 268 274 274 273 277 283 289 294 294 285 286 283 283 278 276 277 258 256 261 253 239 240 236 243 245 249
240 238 238 237 245 247 247 248 252 253 255 259 260 259 260 259 261 268 273 274 276 278 277 280 288 294 291 287 285 285 280 277 279 262 261 264 256 241 239 238 241 242 243
238 240 236 233 239 246 246 247 248 252 257 259 261 262 261 260 260 257 263 271 276 277 276 276 282 288 292 294 294 286 281 276 273 268 275 268 262 256 240 236 239 241 236
233 240 235 234 237 242 247 244 246 250 256 259 260 261 263 264 264 266 261 255 264 272 277 272 275 278 283 292 297 293 290 281 264 265 267 265 265 262 263 245 233 240 239
229 236 237 234 235 239 243 247 244 247 251 256 259 263 265 268 270 269 269 270 265 265 269 276 278 278 282 286 296 295 295 288 272 263 271 263 260 259 256 254 242 238 241
225 231 235 233 232 236 243 248 248 245 249 254 258 262 265 268 269 270 270 269 270 270 272 273 276 273 274 281 289 295 292 287 283 278 266 262 262 263 257 252 250 245 239
223 227 231 231 231 235 242 247 251 250 254 254 259 263 266 268 269 274 277 270 270 270 271 269 272 281 282 281 282 286 288 284 284 280 274 263 261 261 259 253 255 254 242
225 224 220 226 226 231 238 246 251 257 255 257 258 263 268 271 270 269 270 268 265 266 270 273 270 271 279 284 282 281 285 289 285 279 275 271 258 263 258 255 258 262 251
225 213 217 220 223 229 236 243 247 247 251 251 259 264 269 270 263 262 277 270 262 268 267 270 268 268 270 274 282 283 282 283 288 281 276 275 263 264 254 260 257 261 256
217 237 222 220 221 226 234 240 240 242 249 252 261 264 264 269 269 275 254 271 275 270 267 266 268 266 266 276 278 280 282 281 283 283 284 268 269 266 258 258 259 265 261
232 249 223 220 219 228 237 243 241 246 251 254 260 263 265 267 270 273 274 281 275 276 274 265 262 266 270 273 276 279 280 277 277 280 283 270 264 264 258 257 261 264 259
245 242 238 241 232 233 241 243 249 249 252 257 260 261 264 269 269 275 274 273 278 280 278 268 263 265 269 275 279 279 281 270 270 271 275 271 264 264 269 265 266 262 262
251 242 229 226 232 239 246 250 256 262 259 260 261 262 265 269 271 272 272 272 275 279 281 273 272 270 270 277 276 276 280 270 268 267 268 269 263 262 262 267 262 263 262
219 234 240 237 248 251 256 260 260 260 262 263 263 263 268 271 272 272 271 271 273 277 278 277 277 276 270 284 270 273 276 276 269 268 266 265 262 265 262 264 261 257 258
235 255 234 258 254 253 256 258 260 261 261 262 261 260 262 265 267 270 272 271 274 276 273 272 271 272 271 273 273 276 278 273 273 268 266 262 260 262 264 263 263 255 259
268 257 256 257 260 259 260 262 263 264 263 262 261 262 263 265 266 267 269 271 271 273 274 272 272 274 273 272 271 271 270 271 273 266 262 261 260 259 263 261 262 256 258
261 260 261 256 256 259 261 262 264 264 266 265 265 264 264 266 267 268 269 270 272 271 273 273 276 274 274 273 268 270 267 268 268 274 261 261 261 261 260 260 259 263 262
266 268 269 269 266 264 265 265 264 265 265 265 265 266 266 267 269 269 270 270 268 271 271 273 273 270 268 270 268 265 265 260 269 270 257 258 259 259 260 259 259 261 265
266 268 270 270 268 268 268 268 265 263 263 263 265 266 266 267 267 268 268 269 269 269 268 268 267 265 264 264 266 257 265 263 267 265 258 257 257 258 258 259 259 261 264